Location: Atherton
(17.2661°S, 145.4859°E)
Time: 03:48:51
(UTC+10:00)

Hubble Space Telescope - Pass Details

Date: 09 February 2026
Orbit: 476 x 479 km, 28.5° (Epoch: 6 March)

Event Time Altitude Azimuth Distance (km) Brightness Sun altitude
Rises 21:02:50 0° 289° (WNW) 2,510 4.8 -29.3°
Reaches altitude 10° 21:05:02 10° 286° (WNW) 1,636 3.7 -29.8°
Enters shadow 21:05:43 15° 284° (WNW) 1,375 3.3 -29.9°
